FENGYUN 2E

Last updated on Jan. 15, 2021, 6:30 a.m. UTC

1 33463U 08066A   21014.94119024 -.00000216  00000-0  00000-0 0  9997
2 33463   4.7834  67.8360 0004020 318.1464 154.4884  1.00273583 44247
UTC
Height (km)
Latitude
Longitude
Inclination
Orbital Period
UTC large
Height (km)
Speed (km/s)
/
Latitude / Longitude
Inclination (degrees)
Orbital Period (minutes)
Azimuth
Elevation
Range (km)
Doppler Factor
iOS Compass Heading
iOS Angle

Next 30 passes for location: Hong Kong

Rise time Rise Azimuth (degrees) Set time Set Azimuth (degrees) Duration Max altitude (degrees)

No matching passes for this satellites